Location: Exeidioux
(45.6312°N, 1.6819°E)
Time: 15:14:17
(UTC+00:00)

Cosmos 1844 Rocket - Pass Details

Date: 03 March 2021
Orbit: 826 x 843 km, 71.0° (Epoch: 15 April)

Event Time Altitude Azimuth Distance (km) Brightness Sun altitude
Rises 20:05:30 0° 326° (NW) 3,373 6.6 -25.4°
Reaches altitude 10° 20:08:08 10° 317° (NW) 2,435 5.9 -25.9°
Maximum altitude 20:13:05 34° 255° (WSW) 1,341 4.1 -26.7°
Enters shadow 20:17:27 13° 195° (SSW) 2,238 4.8 -27.4°
